Regional Weather Roundup
Issued by NWS Little Rock, AR

Home | Current Version | Previous Version | Text Only | Print | Product List | Glossary On
Versions: 1 2 3 4 5 6 7 8 9 10 11 12 13 14 15 16 17 18 19 20 21 22 23 24 25 26 27
000
ASUS44 KLZK 311605
RWRLZK

WEATHER ROUNDUP FOR ARKANSAS
NATIONAL WEATHER SERVICE LITTLE ROCK AR
1100 AM CDT WED AUG 31 2016

NOTE: "FAIR" INDICATES FEW OR NO CLOUDS BELOW 12,000 FEET WITH NO
SIGNIFICANT WEATHER AND/OR OBSTRUCTIONS TO VISIBILITY.

ARZ001-003-010-029-311700-
NORTHWEST ARKANSAS

CITY           SKY/WX    TMP DP  RH WIND       PRES   REMARKS
FAYETTEVILLE   MOSUNNY   81  73  76 E3        30.10S HX  86
FORT SMITH     SUNNY     85  71  63 CALM      30.05S HX  90
HARRISON       MOSUNNY   81  72  74 SE3       30.11F HX  85
BENTONVILLE    CLOUDY    79  70  73 N6        30.13R
ROGERS         PTSUNNY   76  72  87 NW6       30.13R
SILOAM SPGS      N/A    N/A N/A N/A MISG        N/A
HIGHFILL       CLOUDY    84  74  71 N8        30.11R HX  91
$$

ARZ004-005-016-311700-
NORTH CENTRAL ARKANSAS

CITY           SKY/WX    TMP DP  RH WIND       PRES   REMARKS
BATESVILLE     MOSUNNY   82  73  74 CALM      30.04S HX  88
FLIPPIN        SUNNY     82  70  65 CALM      30.06S HX  86
MTN HOME       SUNNY     81  72  74 VRB3      30.08S HX  85
$$

ARZ040-041-311700-
WEST CENTRAL ARKANSAS

CITY           SKY/WX    TMP DP  RH WIND       PRES   REMARKS
MENA           SUNNY     86  75  70 CALM      30.08R HX  95
MOUNT IDA      SUNNY     85  73  67 CALM      30.03S HX  91
$$

ARZ009-017-025-026-028-311700-
NORTHEAST ARKANSAS

CITY           SKY/WX    TMP DP  RH WIND       PRES   REMARKS
JONESBORO      SUNNY     87  74  64 VRB3      30.01S HX  95
WALNUT RIDGE   SUNNY     84  73  70 NE3       30.02F HX  91
BLYTHEVILLE    SUNNY     88  77  69 VRB3      30.01F HX 100
NW BLYTHEVILLE SUNNY     86  77  74 N5        30.01S HX  97
$$

ARZ022-023-033-042-044-311700-
CENTRAL ARKANSAS

CITY           SKY/WX    TMP DP  RH WIND       PRES   REMARKS
LITTLE ROCK    MOSUNNY   90  74  59 N5        30.01S HX  99
N LITTLE ROCK    N/A     85  77  76 E3        29.99S HX  96
SEARCY         SUNNY     85  76  74 VRB3      30.04S HX  94
HOT SPRINGS    SUNNY     88  74  63 CALM      30.03S HX  96
RUSSELLVILLE   SUNNY     85  75  72 W5        30.03S HX  93
$$

ARZ036-311700-
EAST ARKANSAS

CITY           SKY/WX    TMP DP  RH WIND       PRES   REMARKS
WEST MEMPHIS   SUNNY     87  75  67 CALM      29.99F HX  96
$$

ARZ050-053-066-070-073-311700-
SOUTHWEST ARKANSAS

CITY           SKY/WX    TMP DP  RH WIND       PRES   REMARKS
ARKADELPHIA    FAIR      86  76  71 NE5       30.01S HX  96
TEXARKANA      SUNNY     86  75  69 NE8       30.01R HX  95
EL DORADO      SUNNY     89  74  60 NE7       29.99S HX  98
DE QUEEN       SUNNY     89  76  65 E6        30.00S HX 100
$$

ARZ056-057-069-311700-
SOUTHEAST ARKANSAS

CITY           SKY/WX    TMP DP  RH WIND       PRES   REMARKS
PINE BLUFF     SUNNY     88  75  65 N5        30.00S HX  97
STUTTGART      SUNNY     88  75  66 NE7       30.01S HX  97
MONTICELLO     SUNNY     92  73  53 E6        29.98F HX 100

$$






USA.gov is the U.S. government's official web portal to all federal, state and local government web resources and services.